Time,TemperatureF,DewpointF,PressureIn,WindDirection,WindDirectionDegrees,WindSpeedMPH,WindSpeedGustMPH,Humidity,HourlyPrecipIn,Conditions,Clouds,dailyrainin,SoftwareType,DateUTC
2013-01-04 00:03:00,34.3,22.7,32.19,WSW,248,0.0,0.0,62,0.00,CLR,SKC,0.00,WeatherDisplay:10.37,2013-01-04 07:03:00,
2013-01-04 00:08:00,34.2,22.9,32.19,WSW,248,0.0,0.0,63,0.00,CLR,SKC,0.00,WeatherDisplay:10.37,2013-01-04 07:08:00,
2013-01-04 00:13:00,34.0,22.7,32.20,WSW,248,0.0,0.0,63,0.00,CLR,SKC,0.00,WeatherDisplay:10.37,2013-01-04 07:13:00,
2013-01-04 00:18:00,33.6,22.4,31.89,WSW,248,0.0,0.0,63,0.00,CLR,SKC,0.00,WeatherDisplay:10.37,2013-01-04 07:18:00,
2013-01-04 00:23:00,33.6,22.7,32.20,WSW,248,0.0,0.0,64,0.00,CLR,SKC,0.00,WeatherDisplay:10.37,2013-01-04 07:23:00,
2013-01-04 00:28:00,33.6,22.7,32.20,WSW,248,0.0,0.0,64,0.00,CLR,SKC,0.00,WeatherDisplay:10.37,2013-01-04 07:28:00,
2013-01-04 00:33:00,33.6,22.7,32.20,WSW,248,0.0,0.0,64,0.00,CLR,SKC,0.00,WeatherDisplay:10.37,2013-01-04 07:33:00,
2013-01-04 00:38:00,33.4,22.9,32.20,WSW,248,0.0,0.0,65,0.00,CLR,SKC,0.00,WeatherDisplay:10.37,2013-01-04 07:38:00,
2013-01-04 00:43:00,33.4,22.9,31.89,WSW,248,0.0,0.0,65,0.00,CLR,SKC,0.00,WeatherDisplay:10.37,2013-01-04 07:43:00,
2013-01-04 00:48:00,33.4,23.3,32.20,WSW,248,0.0,0.0,66,0.00,CLR,SKC,0.00,WeatherDisplay:10.37,2013-01-04 07:48:00,
2013-01-04 00:53:00,33.4,23.3,32.20,WSW,248,0.0,0.0,66,0.00,CLR,SKC,0.00,WeatherDisplay:10.37,2013-01-04 07:53:00,
2013-01-04 00:58:00,33.4,23.3,32.20,WSW,248,0.0,0.0,66,0.00,CLR,SKC,0.00,WeatherDisplay:10.37,2013-01-04 07:58:00,
2013-01-04 01:03:00,33.4,22.9,32.20,WSW,248,0.0,0.0,65,0.00,CLR,SKC,0.00,WeatherDisplay:10.37,2013-01-04 08:03:00,
2013-01-04 01:08:00,33.3,22.8,32.20,WSW,248,0.0,0.0,65,0.00,CLR,SKC,0.00,WeatherDisplay:10.37,2013-01-04 08:08:00,
2013-01-04 01:13:00,33.1,22.6,32.20,WSW,248,0.0,0.0,65,0.00,CLR,SKC,0.00,WeatherDisplay:10.37,2013-01-04 08:13:00,
2013-01-04 01:18:00,32.7,22.2,32.20,WSW,248,0.0,0.0,65,0.00,CLR,SKC,0.00,WeatherDisplay:10.37,2013-01-04 08:18:00,
2013-01-04 01:23:00,32.4,21.9,31.89,WSW,248,0.0,0.0,65,0.00,CLR,SKC,0.00,WeatherDisplay:10.37,2013-01-04 08:23:00,
2013-01-04 01:28:00,32.2,21.7,32.20,WSW,248,0.0,0.0,65,0.00,CLR,SKC,0.00,WeatherDisplay:10.37,2013-01-04 08:28:00,
2013-01-04 01:33:00,32.2,21.7,32.20,WSW,248,0.0,0.0,65,0.00,CLR,SKC,0.00,WeatherDisplay:10.37,2013-01-04 08:33:00,
2013-01-04 01:38:00,32.2,21.7,32.20,WSW,248,0.0,0.0,65,0.00,CLR,SKC,0.00,WeatherDisplay:10.37,2013-01-04 08:38:00,
2013-01-04 01:43:00,32.2,22.1,31.89,WSW,248,0.0,0.0,66,0.00,CLR,SKC,0.00,WeatherDisplay:10.37,2013-01-04 08:43:00,
2013-01-04 01:48:00,32.2,22.1,31.89,WSW,248,0.0,0.0,66,0.00,CLR,SKC,0.00,WeatherDisplay:10.37,2013-01-04 08:48:00,
2013-01-04 01:53:00,32.2,22.1,32.20,WSW,248,0.0,0.0,66,0.00,CLR,SKC,0.00,WeatherDisplay:10.37,2013-01-04 08:53:00,
2013-01-04 01:58:00,32.2,22.1,32.20,WSW,248,0.0,0.0,66,0.00,CLR,SKC,0.00,WeatherDisplay:10.37,2013-01-04 08:58:00,
2013-01-04 02:03:00,32.2,21.7,32.20,WSW,248,0.0,0.0,65,0.00,CLR,SKC,0.00,WeatherDisplay:10.37,2013-01-04 09:03:00,
2013-01-04 02:08:00,32.4,21.9,31.89,WSW,248,0.0,0.0,65,0.00,CLR,SKC,0.00,WeatherDisplay:10.37,2013-01-04 09:08:00,
2013-01-04 02:13:00,32.5,22.1,32.20,WSW,248,0.0,0.0,65,0.00,CLR,SKC,0.00,WeatherDisplay:10.37,2013-01-04 09:13:00,
2013-01-04 02:18:00,32.7,22.2,32.21,WSW,248,0.0,0.0,65,0.00,CLR,SKC,0.00,WeatherDisplay:10.37,2013-01-04 09:18:00,
2013-01-04 02:23:00,32.7,22.2,32.21,WSW,248,0.0,0.0,65,0.00,CLR,SKC,0.00,WeatherDisplay:10.37,2013-01-04 09:23:00,
2013-01-04 02:28:00,32.7,22.2,31.89,WSW,248,0.0,0.0,65,0.00,CLR,SKC,0.00,WeatherDisplay:10.37,2013-01-04 09:28:00,
2013-01-04 02:33:00,32.7,22.2,31.89,WSW,248,0.0,0.0,65,0.00,CLR,SKC,0.00,WeatherDisplay:10.37,2013-01-04 09:33:00,
2013-01-04 02:38:00,32.9,22.4,32.21,WSW,248,0.0,0.0,65,0.00,CLR,SKC,0.00,WeatherDisplay:10.37,2013-01-04 09:38:00,
2013-01-04 02:43:00,32.9,22.4,32.21,WSW,248,0.0,0.0,65,0.00,CLR,SKC,0.00,WeatherDisplay:10.37,2013-01-04 09:43:00,
2013-01-04 02:48:00,33.1,22.6,31.89,WSW,248,0.0,0.0,65,0.00,CLR,SKC,0.00,WeatherDisplay:10.37,2013-01-04 09:48:00,
2013-01-04 02:53:00,33.1,22.9,31.89,WSW,248,0.0,0.0,66,0.00,CLR,SKC,0.00,WeatherDisplay:10.37,2013-01-04 09:53:00,
2013-01-04 02:58:00,33.3,23.1,32.21,WSW,248,0.0,0.0,66,0.00,CLR,SKC,0.00,WeatherDisplay:10.37,2013-01-04 09:58:00,
2013-01-04 03:03:00,33.3,23.1,32.21,WSW,248,0.0,0.0,66,0.00,CLR,SKC,0.00,WeatherDisplay:10.37,2013-01-04 10:03:00,
2013-01-04 03:08:00,33.1,22.9,32.21,WSW,248,0.0,0.0,66,0.00,CLR,SKC,0.00,WeatherDisplay:10.37,2013-01-04 10:08:00,
2013-01-04 03:13:00,33.3,23.1,31.89,WSW,248,0.0,0.0,66,0.00,CLR,SKC,0.00,WeatherDisplay:10.37,2013-01-04 10:13:00,
2013-01-04 03:18:00,33.4,23.3,32.21,WSW,248,0.0,0.0,66,0.00,CLR,SKC,0.00,WeatherDisplay:10.37,2013-01-04 10:18:00,
2013-01-04 03:23:00,33.4,23.3,32.21,WSW,248,0.0,0.0,66,0.00,CLR,SKC,0.00,WeatherDisplay:10.37,2013-01-04 10:23:00,
2013-01-04 03:28:00,33.6,23.5,32.21,WSW,248,0.0,0.0,66,0.00,CLR,SKC,0.00,WeatherDisplay:10.37,2013-01-04 10:28:00,
2013-01-04 03:33:00,33.6,23.5,31.89,WSW,248,0.0,0.0,66,0.00,CLR,SKC,0.00,WeatherDisplay:10.37,2013-01-04 10:33:00,
2013-01-04 03:38:00,33.6,23.5,32.21,WSW,248,0.0,0.0,66,0.00,CLR,SKC,0.00,WeatherDisplay:10.37,2013-01-04 10:38:00,
2013-01-04 03:43:00,33.6,23.5,32.21,WSW,248,0.0,0.0,66,0.00,CLR,SKC,0.00,WeatherDisplay:10.37,2013-01-04 10:43:00,
2013-01-04 03:48:00,33.6,23.5,32.21,WSW,248,0.0,0.0,66,0.00,CLR,SKC,0.00,WeatherDisplay:10.37,2013-01-04 10:48:00,
2013-01-04 03:53:00,33.6,23.5,32.21,WSW,248,0.0,0.0,66,0.00,CLR,SKC,0.00,WeatherDisplay:10.37,2013-01-04 10:53:00,
2013-01-04 03:58:00,33.6,23.5,31.89,WSW,248,0.0,0.0,66,0.00,CLR,SKC,0.00,WeatherDisplay:10.37,2013-01-04 10:58:00,
2013-01-04 04:03:00,33.6,23.5,32.21,WSW,248,0.0,0.0,66,0.00,CLR,SKC,0.00,WeatherDisplay:10.37,2013-01-04 11:03:00,
2013-01-04 04:08:00,33.8,23.6,32.21,WSW,248,0.0,0.0,66,0.00,CLR,SKC,0.00,WeatherDisplay:10.37,2013-01-04 11:08:00,
2013-01-04 04:13:00,34.0,23.8,31.89,WSW,248,0.0,0.0,66,0.00,CLR,SKC,0.00,WeatherDisplay:10.37,2013-01-04 11:13:00,
2013-01-04 04:18:00,34.0,23.8,31.89,WSW,248,0.0,0.0,66,0.00,CLR,SKC,0.00,WeatherDisplay:10.37,2013-01-04 11:18:00,
2013-01-04 04:23:00,34.0,23.8,32.21,WSW,248,0.0,0.0,66,0.00,CLR,SKC,0.00,WeatherDisplay:10.37,2013-01-04 11:23:00,
2013-01-04 04:28:00,34.2,24.0,32.21,WSW,248,0.0,0.0,66,0.00,CLR,SKC,0.00,WeatherDisplay:10.37,2013-01-04 11:28:00,
2013-01-04 04:33:00,34.3,23.8,32.21,WSW,248,0.0,0.0,65,0.00,CLR,SKC,0.00,WeatherDisplay:10.37,2013-01-04 11:33:00,
2013-01-04 04:38:00,34.3,23.8,31.89,WSW,248,0.0,0.0,65,0.00,CLR,SKC,0.00,WeatherDisplay:10.37,2013-01-04 11:38:00,
2013-01-04 04:43:00,34.2,23.6,32.21,WSW,248,0.0,0.0,65,0.00,CLR,SKC,0.00,WeatherDisplay:10.37,2013-01-04 11:43:00,
2013-01-04 04:48:00,34.0,23.4,32.21,WSW,248,0.0,0.0,65,0.00,CLR,SKC,0.00,WeatherDisplay:10.37,2013-01-04 11:48:00,
2013-01-04 04:53:00,33.8,23.3,32.21,WSW,248,0.0,0.0,65,0.00,CLR,SKC,0.00,WeatherDisplay:10.37,2013-01-04 11:53:00,
2013-01-04 04:58:00,33.6,23.1,31.89,WSW,248,0.0,0.0,65,0.00,CLR,SKC,0.00,WeatherDisplay:10.37,2013-01-04 11:58:00,
2013-01-04 05:03:00,33.4,22.9,31.89,WSW,248,0.0,0.0,65,0.00,CLR,SKC,0.00,WeatherDisplay:10.37,2013-01-04 12:03:00,
2013-01-04 05:08:00,33.3,22.8,32.21,WSW,248,0.0,0.0,65,0.00,CLR,SKC,0.00,WeatherDisplay:10.37,2013-01-04 12:08:00,
2013-01-04 05:13:00,33.1,22.6,32.21,WSW,248,0.0,0.0,65,0.00,CLR,SKC,0.00,WeatherDisplay:10.37,2013-01-04 12:13:00,
2013-01-04 05:18:00,32.9,22.4,32.21,WSW,248,0.0,0.0,65,0.00,CLR,SKC,0.00,WeatherDisplay:10.37,2013-01-04 12:18:00,
2013-01-04 05:23:00,32.9,22.4,31.89,WSW,248,0.0,0.0,65,0.00,CLR,SKC,0.00,WeatherDisplay:10.37,2013-01-04 12:23:00,
2013-01-04 05:28:00,32.7,22.6,32.21,WSW,248,0.0,0.0,66,0.00,CLR,SKC,0.00,WeatherDisplay:10.37,2013-01-04 12:28:00,
2013-01-04 05:33:00,32.5,22.4,32.21,WSW,248,0.0,0.0,66,0.00,CLR,SKC,0.00,WeatherDisplay:10.37,2013-01-04 12:33:00,
2013-01-04 05:38:00,32.4,22.6,32.21,WSW,248,0.0,0.0,67,0.00,CLR,SKC,0.00,WeatherDisplay:10.37,2013-01-04 12:38:00,
2013-01-04 05:43:00,32.2,22.4,31.89,WSW,248,0.0,0.0,67,0.00,CLR,SKC,0.00,WeatherDisplay:10.37,2013-01-04 12:43:00,
2013-01-04 05:48:00,32.0,22.3,31.89,WSW,248,0.0,0.0,67,0.00,CLR,SKC,0.00,WeatherDisplay:10.37,2013-01-04 12:48:00,
2013-01-04 05:53:00,31.8,22.1,32.21,WSW,248,0.0,0.0,67,0.00,CLR,SKC,0.00,WeatherDisplay:10.37,2013-01-04 12:53:00,
2013-01-04 05:58:00,31.8,22.1,32.21,WSW,248,0.0,0.0,67,0.00,CLR,SKC,0.00,WeatherDisplay:10.37,2013-01-04 12:58:00,
2013-01-04 06:03:00,31.6,21.9,32.21,WSW,248,0.0,0.0,67,0.00,CLR,SKC,0.00,WeatherDisplay:10.37,2013-01-04 13:03:00,
2013-01-04 06:08:00,31.3,21.6,31.89,WSW,248,0.0,0.0,67,0.00,CLR,SKC,0.00,WeatherDisplay:10.37,2013-01-04 13:08:00,
2013-01-04 06:13:00,30.9,21.2,32.21,WSW,248,0.0,0.0,67,0.00,CLR,SKC,0.00,WeatherDisplay:10.37,2013-01-04 13:13:00,
2013-01-04 06:18:00,30.4,21.1,32.22,WSW,248,0.0,0.0,68,0.00,CLR,SKC,0.00,WeatherDisplay:10.37,2013-01-04 13:18:00,
2013-01-04 06:23:00,29.8,20.6,32.21,WSW,248,0.0,0.0,68,0.00,CLR,SKC,0.00,WeatherDisplay:10.37,2013-01-04 13:23:00,
2013-01-04 06:28:00,29.3,20.0,31.89,WSW,248,0.0,0.0,68,0.00,CLR,SKC,0.00,WeatherDisplay:10.37,2013-01-04 13:28:00,
2013-01-04 06:33:00,29.1,20.2,32.22,WSW,248,0.0,0.0,69,0.00,CLR,SKC,0.00,WeatherDisplay:10.37,2013-01-04 13:33:00,
2013-01-04 06:38:00,28.9,20.4,32.22,West,270,0.0,0.0,70,0.00,CLR,SKC,0.00,WeatherDisplay:10.37,2013-01-04 13:38:00,
2013-01-04 06:43:00,28.9,20.4,32.22,West,270,0.0,0.0,70,0.00,CLR,SKC,0.00,WeatherDisplay:10.37,2013-01-04 13:43:00,
2013-01-04 06:48:00,28.8,20.2,32.22,West,270,0.0,0.0,70,0.00,CLR,SKC,0.00,WeatherDisplay:10.37,2013-01-04 13:48:00,
2013-01-04 06:53:00,28.6,20.0,32.23,West,270,0.0,0.0,70,0.00,CLR,SKC,0.00,WeatherDisplay:10.37,2013-01-04 13:53:00,
2013-01-04 06:58:00,28.6,20.0,32.23,West,270,0.0,0.0,70,0.00,CLR,SKC,0.00,WeatherDisplay:10.37,2013-01-04 13:58:00,
2013-01-04 07:03:00,28.6,20.0,32.23,West,270,0.0,0.0,70,0.00,CLR,SKC,0.00,WeatherDisplay:10.37,2013-01-04 14:03:00,
2013-01-04 07:08:00,28.6,20.0,32.23,West,270,0.0,0.0,70,0.00,CLR,SKC,0.00,WeatherDisplay:10.37,2013-01-04 14:08:00,
2013-01-04 07:13:00,28.6,20.4,32.23,West,270,0.0,0.0,71,0.00,CLR,SKC,0.00,WeatherDisplay:10.37,2013-01-04 14:13:00,
2013-01-04 07:18:00,28.6,20.4,32.23,West,270,0.0,0.0,71,0.00,CLR,SKC,0.00,WeatherDisplay:10.37,2013-01-04 14:18:00,
2013-01-04 07:23:00,28.6,20.4,32.24,West,270,0.0,0.0,71,0.00,CLR,SKC,0.00,WeatherDisplay:10.37,2013-01-04 14:23:00,
2013-01-04 07:28:00,28.6,20.4,32.24,West,270,0.0,0.0,71,0.00,CLR,SKC,0.00,WeatherDisplay:10.37,2013-01-04 14:28:00,
2013-01-04 07:33:00,28.6,20.7,32.24,West,270,0.0,0.0,72,0.00,CLR,SKC,0.00,WeatherDisplay:10.37,2013-01-04 14:33:00,
2013-01-04 07:38:00,28.6,20.7,32.24,West,270,0.0,0.0,72,0.00,CLR,SKC,0.00,WeatherDisplay:10.37,2013-01-04 14:38:00,
2013-01-04 07:43:00,28.2,20.3,32.24,West,270,0.0,0.0,72,0.00,CLR,SKC,0.00,WeatherDisplay:10.37,2013-01-04 14:43:00,
2013-01-04 07:48:00,28.2,20.3,32.24,West,270,0.0,0.0,72,0.00,CLR,SKC,0.00,WeatherDisplay:10.37,2013-01-04 14:48:00,
2013-01-04 07:53:00,28.2,20.3,31.89,West,270,0.0,0.0,72,0.00,CLR,SKC,0.00,WeatherDisplay:10.37,2013-01-04 14:53:00,
2013-01-04 07:58:00,28.0,19.8,32.24,NNW,338,1.2,1.6,71,0.00,CLR,SKC,0.00,WeatherDisplay:10.37,2013-01-04 14:58:00,
2013-01-04 08:03:00,27.7,19.5,31.89,NNW,338,5.8,5.8,71,0.00,CLR,SKC,0.00,WeatherDisplay:10.37,2013-01-04 15:03:00,
2013-01-04 08:08:00,27.3,19.2,32.25,NNW,338,0.0,0.0,71,0.00,CLR,SKC,0.00,WeatherDisplay:10.37,2013-01-04 15:08:00,
2013-01-04 08:13:00,27.5,19.7,32.25,NNW,338,0.0,0.0,72,0.00,CLR,SKC,0.00,WeatherDisplay:10.37,2013-01-04 15:13:00,
2013-01-04 08:18:00,27.7,19.8,31.89,NNW,338,0.0,0.0,72,0.00,CLR,SKC,0.00,WeatherDisplay:10.37,2013-01-04 15:18:00,
2013-01-04 08:23:00,28.0,20.2,32.26,NNW,338,0.0,0.0,72,0.00,CLR,SKC,0.00,WeatherDisplay:10.37,2013-01-04 15:23:00,
2013-01-04 08:28:00,28.6,20.7,32.26,NNW,338,0.0,0.0,72,0.00,CLR,SKC,0.00,WeatherDisplay:10.37,2013-01-04 15:28:00,
2013-01-04 08:33:00,29.1,21.2,32.26,NNW,338,0.0,0.0,72,0.00,CLR,SKC,0.00,WeatherDisplay:10.37,2013-01-04 15:33:00,
2013-01-04 08:38:00,29.7,21.7,31.89,NNW,338,0.0,0.0,72,0.00,CLR,SKC,0.00,WeatherDisplay:10.37,2013-01-04 15:38:00,
2013-01-04 08:43:00,30.7,22.8,32.26,NNW,338,0.0,0.0,72,0.00,CLR,SKC,0.00,WeatherDisplay:10.37,2013-01-04 15:43:00,
2013-01-04 08:48:00,31.6,23.6,32.26,NNW,338,0.0,0.0,72,0.00,CLR,SKC,0.00,WeatherDisplay:10.37,2013-01-04 15:48:00,
2013-01-04 08:53:00,32.7,24.3,32.26,NNW,338,0.0,0.0,71,0.00,CLR,SKC,0.00,WeatherDisplay:10.37,2013-01-04 15:53:00,
2013-01-04 08:58:00,34.0,25.2,32.26,NNW,338,0.0,0.0,70,0.00,CLR,SKC,0.00,WeatherDisplay:10.37,2013-01-04 15:58:00,
2013-01-04 09:03:00,35.2,26.1,32.26,NNW,338,0.0,0.0,69,0.00,CLR,SKC,0.00,WeatherDisplay:10.37,2013-01-04 16:03:00,
2013-01-04 09:08:00,36.3,26.4,32.26,NNW,338,0.0,0.0,67,0.00,CLR,SKC,0.00,WeatherDisplay:10.37,2013-01-04 16:08:00,
2013-01-04 09:13:00,37.4,27.1,32.26,NNW,338,0.0,0.0,66,0.00,CLR,SKC,0.00,WeatherDisplay:10.37,2013-01-04 16:13:00,
2013-01-04 09:18:00,38.8,27.7,32.27,NNW,338,0.0,0.0,64,0.00,CLR,SKC,0.00,WeatherDisplay:10.37,2013-01-04 16:18:00,
2013-01-04 09:23:00,39.6,27.6,31.89,NNW,338,0.0,0.0,62,0.00,CLR,SKC,0.00,WeatherDisplay:10.37,2013-01-04 16:23:00,
2013-01-04 09:28:00,40.6,28.2,32.27,NNW,338,0.0,0.0,61,0.00,CLR,SKC,0.00,WeatherDisplay:10.37,2013-01-04 16:28:00,
2013-01-04 09:33:00,41.5,28.3,32.26,NNW,338,0.0,0.0,59,0.00,CLR,SKC,0.00,WeatherDisplay:10.37,2013-01-04 16:33:00,
2013-01-04 09:38:00,42.4,28.7,32.27,NNW,338,0.0,0.0,58,0.00,CLR,SKC,0.00,WeatherDisplay:10.37,2013-01-04 16:38:00,
2013-01-04 09:43:00,43.9,29.6,31.89,NNW,338,0.0,0.0,57,0.00,CLR,SKC,0.00,WeatherDisplay:10.37,2013-01-04 16:43:00,
2013-01-04 09:48:00,44.8,29.1,32.27,NNW,338,0.0,0.0,54,0.00,CLR,SKC,0.00,WeatherDisplay:10.37,2013-01-04 16:48:00,
2013-01-04 09:53:00,45.3,29.6,32.27,NNW,338,0.0,0.0,54,0.00,CLR,SKC,0.00,WeatherDisplay:10.37,2013-01-04 16:53:00,
2013-01-04 09:58:00,46.2,30.0,31.89,West,270,5.8,0.0,53,0.00,CLR,SKC,0.00,WeatherDisplay:10.37,2013-01-04 16:58:00,
2013-01-04 10:03:00,47.1,29.9,32.27,West,270,3.5,0.0,51,0.00,CLR,SKC,0.00,WeatherDisplay:10.37,2013-01-04 17:03:00,
2013-01-04 10:08:00,48.0,30.7,32.27,West,270,0.0,0.0,51,0.00,CLR,SKC,0.00,WeatherDisplay:10.37,2013-01-04 17:08:00,
2013-01-04 10:13:00,48.7,30.4,32.27,WNW,292,0.0,0.0,49,0.00,CLR,SKC,0.00,WeatherDisplay:10.37,2013-01-04 17:13:00,
2013-01-04 10:18:00,49.1,30.2,31.89,WSW,248,0.0,0.0,48,0.00,CLR,SKC,0.00,WeatherDisplay:10.37,2013-01-04 17:18:00,
2013-01-04 10:23:00,49.6,30.7,32.26,NW,315,0.4,0.0,48,0.00,CLR,SKC,0.00,WeatherDisplay:10.37,2013-01-04 17:23:00,
2013-01-04 10:28:00,49.3,29.4,31.89,West,270,8.1,8.1,46,0.00,CLR,SKC,0.00,WeatherDisplay:10.37,2013-01-04 17:28:00,
2013-01-04 10:33:00,48.4,28.5,32.26,West,270,8.1,8.1,46,0.00,CLR,SKC,0.00,WeatherDisplay:10.37,2013-01-04 17:33:00,
2013-01-04 10:38:00,48.4,29.1,32.26,NW,315,2.3,2.3,47,0.00,CLR,SKC,0.00,WeatherDisplay:10.37,2013-01-04 17:38:00,
2013-01-04 10:43:00,48.7,28.9,32.26,West,270,3.5,0.0,46,0.00,CLR,SKC,0.00,WeatherDisplay:10.37,2013-01-04 17:43:00,
2013-01-04 10:48:00,48.9,29.0,31.89,NW,315,0.0,0.0,46,0.00,CLR,SKC,0.00,WeatherDisplay:10.37,2013-01-04 17:48:00,
2013-01-04 10:53:00,49.8,29.3,32.26,West,270,8.1,8.1,45,0.00,CLR,SKC,0.00,WeatherDisplay:10.37,2013-01-04 17:53:00,
2013-01-04 10:58:00,49.8,29.3,32.25,WNW,292,1.2,1.2,45,0.00,CLR,SKC,0.00,WeatherDisplay:10.37,2013-01-04 17:58:00,
2013-01-04 11:03:00,50.7,30.1,32.25,SSW,202,8.1,8.1,45,0.00,CLR,SKC,0.00,WeatherDisplay:10.37,2013-01-04 18:03:00,
2013-01-04 11:08:00,52.2,30.3,31.89,WNW,292,2.3,2.3,43,0.00,CLR,SKC,0.00,WeatherDisplay:10.37,2013-01-04 18:08:00,
2013-01-04 11:13:00,52.3,29.9,32.25,NW,315,2.3,0.0,42,0.00,CLR,SKC,0.00,WeatherDisplay:10.37,2013-01-04 18:13:00,
2013-01-04 11:18:00,52.5,30.6,32.25,WNW,292,0.0,0.0,43,0.00,CLR,SKC,0.00,WeatherDisplay:10.37,2013-01-04 18:18:00,
2013-01-04 11:23:00,53.4,30.9,32.24,West,270,4.6,4.6,42,0.00,CLR,SKC,0.00,WeatherDisplay:10.37,2013-01-04 18:23:00,
2013-01-04 11:28:00,53.8,30.6,31.89,WSW,248,1.2,0.0,41,0.00,CLR,SKC,0.00,WeatherDisplay:10.37,2013-01-04 18:28:00,
2013-01-04 11:33:00,55.2,31.9,32.24,WSW,248,1.2,1.2,41,0.00,CLR,SKC,0.00,WeatherDisplay:10.37,2013-01-04 18:33:00,
2013-01-04 11:38:00,56.8,32.8,32.24,SW,225,0.9,0.0,40,0.00,CLR,SKC,0.00,WeatherDisplay:10.37,2013-01-04 18:38:00,
2013-01-04 11:43:00,58.3,32.8,32.23,NW,315,9.2,9.2,38,0.00,CLR,SKC,0.00,WeatherDisplay:10.37,2013-01-04 18:43:00,
2013-01-04 11:48:00,57.6,31.5,32.23,West,270,0.0,0.1,37,0.00,CLR,SKC,0.00,WeatherDisplay:10.37,2013-01-04 18:48:00,
2013-01-04 11:53:00,57.7,31.6,31.89,WNW,292,5.8,5.8,37,0.00,CLR,SKC,0.00,WeatherDisplay:10.37,2013-01-04 18:53:00,
2013-01-04 11:58:00,57.4,31.3,32.22,SSW,202,5.8,5.8,37,0.00,CLR,SKC,0.00,WeatherDisplay:10.37,2013-01-04 18:58:00,
2013-01-04 12:03:00,57.9,31.8,32.22,SW,225,0.0,0.0,37,0.00,CLR,SKC,0.00,WeatherDisplay:10.37,2013-01-04 19:03:00,
2013-01-04 12:08:00,58.5,31.6,32.22,NW,315,4.6,4.6,36,0.00,CLR,SKC,0.00,WeatherDisplay:10.37,2013-01-04 19:08:00,
2013-01-04 12:13:00,57.9,31.1,32.21,SW,225,1.2,1.2,36,0.00,CLR,SKC,0.00,WeatherDisplay:10.37,2013-01-04 19:13:00,
2013-01-04 12:18:00,58.8,31.9,32.21,SW,225,7.4,7.4,36,0.00,CLR,SKC,0.00,WeatherDisplay:10.37,2013-01-04 19:18:00,
2013-01-04 12:23:00,60.1,33.0,31.89,SW,225,5.8,5.8,36,0.00,CLR,SKC,0.00,WeatherDisplay:10.37,2013-01-04 19:23:00,
2013-01-04 12:28:00,61.3,33.4,31.89,WSW,248,8.1,8.1,35,0.00,CLR,SKC,0.00,WeatherDisplay:10.37,2013-01-04 19:28:00,
2013-01-04 12:33:00,61.9,33.2,32.20,South,180,0.0,2.8,34,0.00,CLR,SKC,0.00,WeatherDisplay:10.37,2013-01-04 19:33:00,
2013-01-04 12:38:00,62.2,32.8,32.20,WNW,292,6.9,6.9,33,0.00,CLR,SKC,0.00,WeatherDisplay:10.37,2013-01-04 19:38:00,
2013-01-04 12:43:00,61.9,32.4,32.20,West,270,0.0,0.0,33,0.00,CLR,SKC,0.00,WeatherDisplay:10.37,2013-01-04 19:43:00,
2013-01-04 12:48:00,62.4,32.9,32.19,WSW,248,8.1,8.1,33,0.00,CLR,SKC,0.00,WeatherDisplay:10.37,2013-01-04 19:48:00,
2013-01-04 12:53:00,63.3,32.9,31.89,West,270,3.5,0.0,32,0.00,CLR,SKC,0.00,WeatherDisplay:10.37,2013-01-04 19:53:00,
2013-01-04 12:58:00,64.0,33.6,32.19,West,270,6.9,0.0,32,0.00,CLR,SKC,0.00,WeatherDisplay:10.37,2013-01-04 19:58:00,
2013-01-04 13:03:00,64.2,32.9,32.19,WSW,248,0.0,0.0,31,0.00,CLR,SKC,0.00,WeatherDisplay:10.37,2013-01-04 20:03:00,
2013-01-04 13:08:00,64.2,32.9,32.19,South,180,0.0,0.0,31,0.00,CLR,SKC,0.00,WeatherDisplay:10.37,2013-01-04 20:08:00,
2013-01-04 13:13:00,64.2,32.9,32.18,North,0,8.1,8.1,31,0.00,CLR,SKC,0.00,WeatherDisplay:10.37,2013-01-04 20:13:00,
2013-01-04 13:18:00,63.5,32.3,32.18,WNW,292,0.0,0.8,31,0.00,CLR,SKC,0.00,WeatherDisplay:10.37,2013-01-04 20:18:00,
2013-01-04 13:23:00,62.8,31.7,32.18,West,270,0.0,0.0,31,0.00,CLR,SKC,0.00,WeatherDisplay:10.37,2013-01-04 20:23:00,
2013-01-04 13:28:00,62.6,31.5,31.89,SW,225,10.4,10.4,31,0.00,CLR,SKC,0.00,WeatherDisplay:10.37,2013-01-04 20:28:00,
2013-01-04 13:33:00,63.1,32.0,31.89,SSW,202,0.0,0.0,31,0.00,CLR,SKC,0.00,WeatherDisplay:10.37,2013-01-04 20:33:00,
2013-01-04 13:38:00,63.3,32.1,32.18,ENE,68,0.0,0.0,31,0.00,CLR,SKC,0.00,WeatherDisplay:10.37,2013-01-04 20:38:00,
2013-01-04 13:43:00,63.0,31.8,32.18,NE,45,8.5,8.5,31,0.00,CLR,SKC,0.00,WeatherDisplay:10.37,2013-01-04 20:43:00,
2013-01-04 13:48:00,61.9,30.1,32.17,NE,45,0.0,0.0,30,0.00,CLR,SKC,0.00,WeatherDisplay:10.37,2013-01-04 20:48:00,
2013-01-04 13:53:00,62.4,32.1,32.17,SSW,202,0.0,0.0,32,0.00,CLR,SKC,0.00,WeatherDisplay:10.37,2013-01-04 20:53:00,
2013-01-04 13:58:00,64.0,32.8,32.17,SSW,202,8.1,8.1,31,0.00,CLR,SKC,0.00,WeatherDisplay:10.37,2013-01-04 20:58:00,
2013-01-04 14:03:00,65.1,32.9,32.17,SW,225,6.9,6.9,30,0.00,CLR,SKC,0.00,WeatherDisplay:10.37,2013-01-04 21:03:00,
2013-01-04 14:08:00,66.4,34.0,32.17,SW,225,9.2,9.2,30,0.00,CLR,SKC,0.00,WeatherDisplay:10.37,2013-01-04 21:08:00,
2013-01-04 14:13:00,66.9,33.6,32.17,SW,225,3.5,3.5,29,0.00,CLR,SKC,0.00,WeatherDisplay:10.37,2013-01-04 21:13:00,
2013-01-04 14:18:00,67.6,33.3,32.17,SW,225,1.8,2.8,28,0.00,CLR,SKC,0.00,WeatherDisplay:10.37,2013-01-04 21:18:00,
2013-01-04 14:23:00,68.2,34.7,32.16,SW,225,0.0,0.0,29,0.00,CLR,SKC,0.00,WeatherDisplay:10.37,2013-01-04 21:23:00,
2013-01-04 14:28:00,68.2,32.9,32.16,NW,315,6.5,6.5,27,0.00,CLR,SKC,0.00,WeatherDisplay:10.37,2013-01-04 21:28:00,
2013-01-04 14:33:00,65.8,31.8,32.16,WSW,248,6.5,6.5,28,0.00,CLR,SKC,0.00,WeatherDisplay:10.37,2013-01-04 21:33:00,
2013-01-04 14:38:00,66.0,32.8,32.16,SW,225,6.3,6.3,29,0.00,CLR,SKC,0.00,WeatherDisplay:10.37,2013-01-04 21:38:00,
2013-01-04 14:43:00,66.9,32.7,32.16,SW,225,5.8,5.8,28,0.00,CLR,SKC,0.00,WeatherDisplay:10.37,2013-01-04 21:43:00,
2013-01-04 14:48:00,67.8,33.5,31.89,WSW,248,0.0,0.0,28,0.00,CLR,SKC,0.00,WeatherDisplay:10.37,2013-01-04 21:48:00,
2013-01-04 14:53:00,67.3,32.1,31.89,WSW,248,0.0,0.0,27,0.00,CLR,SKC,0.00,WeatherDisplay:10.37,2013-01-04 21:53:00,
2013-01-04 14:59:00,66.9,31.8,31.89,WNW,292,5.8,0.0,27,0.00,CLR,SKC,0.00,WeatherDisplay:10.37,2013-01-04 21:59:00,
2013-01-04 15:04:00,66.4,32.3,32.16,West,270,0.0,0.1,28,0.00,CLR,SKC,0.00,WeatherDisplay:10.37,2013-01-04 22:04:00,
2013-01-04 15:09:00,66.7,32.6,32.16,West,270,0.0,0.0,28,0.00,CLR,SKC,0.00,WeatherDisplay:10.37,2013-01-04 22:09:00,
2013-01-04 15:14:00,67.6,32.4,32.16,SW,225,0.0,0.1,27,0.00,CLR,SKC,0.00,WeatherDisplay:10.37,2013-01-04 22:14:00,
2013-01-04 15:19:00,68.4,33.1,32.16,SW,225,6.9,6.9,27,0.00,CLR,SKC,0.00,WeatherDisplay:10.37,2013-01-04 22:19:00,
2013-01-04 15:24:00,68.9,33.5,31.89,SW,225,6.9,6.9,27,0.00,CLR,SKC,0.00,WeatherDisplay:10.37,2013-01-04 22:24:00,
2013-01-04 15:29:00,69.1,33.7,32.16,SW,225,0.0,0.0,27,0.00,CLR,SKC,0.00,WeatherDisplay:10.37,2013-01-04 22:29:00,
2013-01-04 15:34:00,69.1,32.7,32.16,West,270,0.0,0.0,26,0.00,CLR,SKC,0.00,WeatherDisplay:10.37,2013-01-04 22:34:00,
2013-01-04 15:39:00,68.2,32.0,32.16,WNW,292,0.0,0.0,26,0.00,CLR,SKC,0.00,WeatherDisplay:10.37,2013-01-04 22:39:00,
2013-01-04 15:44:00,67.3,32.1,31.89,West,270,0.0,0.0,27,0.00,CLR,SKC,0.00,WeatherDisplay:10.37,2013-01-04 22:44:00,
2013-01-04 15:49:00,67.3,31.2,32.17,WNW,292,5.8,5.8,26,0.00,CLR,SKC,0.00,WeatherDisplay:10.37,2013-01-04 22:49:00,
2013-01-04 15:54:00,65.1,30.3,32.16,WNW,292,0.0,0.0,27,0.00,CLR,SKC,0.00,WeatherDisplay:10.37,2013-01-04 22:54:00,
2013-01-04 15:59:00,64.6,30.7,32.17,WNW,292,0.0,0.0,28,0.00,CLR,SKC,0.00,WeatherDisplay:10.37,2013-01-04 22:59:00,
2013-01-04 16:04:00,63.7,29.9,32.17,WNW,292,0.0,0.0,28,0.00,CLR,SKC,0.00,WeatherDisplay:10.37,2013-01-04 23:04:00,
2013-01-04 16:09:00,63.7,29.9,32.17,West,270,0.0,0.0,28,0.00,CLR,SKC,0.00,WeatherDisplay:10.37,2013-01-04 23:09:00,
2013-01-04 16:14:00,64.6,30.7,32.17,West,270,0.0,0.0,28,0.00,CLR,SKC,0.00,WeatherDisplay:10.37,2013-01-04 23:14:00,
2013-01-04 16:19:00,65.1,31.2,32.17,West,270,0.0,0.0,28,0.00,CLR,SKC,0.00,WeatherDisplay:10.37,2013-01-04 23:19:00,
2013-01-04 16:24:00,65.1,30.3,31.89,West,270,0.0,0.0,27,0.00,CLR,SKC,0.00,WeatherDisplay:10.37,2013-01-04 23:24:00,
2013-01-04 16:29:00,65.3,31.3,31.89,West,270,0.0,0.0,28,0.00,CLR,SKC,0.00,WeatherDisplay:10.37,2013-01-04 23:29:00,
2013-01-04 16:34:00,65.7,30.7,32.17,West,270,0.0,0.0,27,0.00,CLR,SKC,0.00,WeatherDisplay:10.37,2013-01-04 23:34:00,
2013-01-04 16:39:00,65.5,30.6,32.17,West,270,0.0,0.0,27,0.00,CLR,SKC,0.00,WeatherDisplay:10.37,2013-01-04 23:39:00,
2013-01-04 16:44:00,65.5,30.6,32.17,West,270,0.0,0.0,27,0.00,CLR,SKC,0.00,WeatherDisplay:10.37,2013-01-04 23:44:00,
2013-01-04 16:49:00,65.1,30.3,32.17,West,270,0.0,0.0,27,0.00,CLR,SKC,0.00,WeatherDisplay:10.37,2013-01-04 23:49:00,
2013-01-04 16:54:00,64.9,30.1,31.89,West,270,0.0,0.0,27,0.00,CLR,SKC,0.00,WeatherDisplay:10.37,2013-01-04 23:54:00,
2013-01-04 16:59:00,64.8,30.0,32.17,SW,225,4.6,4.6,27,0.00,CLR,SKC,0.00,WeatherDisplay:10.37,2013-01-04 23:59:00,
2013-01-04 17:04:00,64.6,30.7,32.17,SW,225,1.2,1.2,28,0.00,CLR,SKC,0.00,WeatherDisplay:10.37,2013-01-05 00:04:00,
2013-01-04 17:09:00,64.0,30.2,31.89,SW,225,5.8,5.8,28,0.00,CLR,SKC,0.00,WeatherDisplay:10.37,2013-01-05 00:09:00,
2013-01-04 17:14:00,63.5,29.8,31.89,SW,225,1.2,1.2,28,0.00,CLR,SKC,0.00,WeatherDisplay:10.37,2013-01-05 00:14:00,
2013-01-04 17:19:00,62.8,29.2,32.17,SW,225,1.2,1.2,28,0.00,CLR,SKC,0.00,WeatherDisplay:10.37,2013-01-05 00:19:00,
2013-01-04 17:24:00,61.7,28.2,32.17,SW,225,5.8,5.8,28,0.00,CLR,SKC,0.00,WeatherDisplay:10.37,2013-01-05 00:24:00,
2013-01-04 17:29:00,60.6,28.2,32.17,SW,225,9.2,9.2,29,0.00,CLR,SKC,0.00,WeatherDisplay:10.37,2013-01-05 00:29:00,
2013-01-04 17:34:00,58.8,26.6,31.89,WSW,248,6.9,6.9,29,0.00,CLR,SKC,0.00,WeatherDisplay:10.37,2013-01-05 00:34:00,
2013-01-04 17:39:00,57.7,26.5,32.17,WSW,248,6.9,6.9,30,0.00,CLR,SKC,0.00,WeatherDisplay:10.37,2013-01-05 00:39:00,
2013-01-04 17:44:00,56.3,26.0,32.17,WSW,248,6.9,6.9,31,0.00,CLR,SKC,0.00,WeatherDisplay:10.37,2013-01-05 00:44:00,
2013-01-04 17:49:00,55.0,24.9,31.89,WSW,248,8.1,8.1,31,0.00,CLR,SKC,0.00,WeatherDisplay:10.37,2013-01-05 00:49:00,
2013-01-04 17:54:00,53.8,24.6,31.89,West,270,8.1,8.1,32,0.00,CLR,SKC,0.00,WeatherDisplay:10.37,2013-01-05 00:54:00,
2013-01-04 17:59:00,52.5,24.2,32.18,WSW,248,10.4,10.4,33,0.00,CLR,SKC,0.00,WeatherDisplay:10.37,2013-01-05 00:59:00,
2013-01-04 18:04:00,51.1,23.7,32.18,WSW,248,10.4,10.4,34,0.00,CLR,SKC,0.00,WeatherDisplay:10.37,2013-01-05 01:04:00,
2013-01-04 18:09:00,50.2,22.9,32.18,WSW,248,9.2,9.2,34,0.00,CLR,SKC,0.00,WeatherDisplay:10.37,2013-01-05 01:09:00,
2013-01-04 18:14:00,49.3,22.8,31.89,WSW,248,11.5,11.5,35,0.00,CLR,SKC,0.00,WeatherDisplay:10.37,2013-01-05 01:14:00,
2013-01-04 18:19:00,48.6,22.8,32.18,WSW,248,9.2,9.2,36,0.00,CLR,SKC,0.00,WeatherDisplay:10.37,2013-01-05 01:19:00,
2013-01-04 18:24:00,48.0,22.3,32.19,WSW,248,8.1,8.1,36,0.00,CLR,SKC,0.00,WeatherDisplay:10.37,2013-01-05 01:24:00,
2013-01-04 18:29:00,47.1,22.1,32.18,West,270,6.9,6.9,37,0.00,CLR,SKC,0.00,WeatherDisplay:10.37,2013-01-05 01:29:00,
2013-01-04 18:34:00,46.8,21.8,31.89,West,270,8.1,8.1,37,0.00,CLR,SKC,0.00,WeatherDisplay:10.37,2013-01-05 01:34:00,
2013-01-04 18:39:00,46.2,22.0,32.19,WSW,248,5.8,5.8,38,0.00,CLR,SKC,0.00,WeatherDisplay:10.37,2013-01-05 01:39:00,
2013-01-04 18:44:00,45.9,21.7,32.19,WSW,248,3.5,3.5,38,0.00,CLR,SKC,0.00,WeatherDisplay:10.37,2013-01-05 01:44:00,
2013-01-04 18:49:00,45.5,21.3,32.19,West,270,0.0,0.0,38,0.00,CLR,SKC,0.00,WeatherDisplay:10.37,2013-01-05 01:49:00,
2013-01-04 18:54:00,45.3,21.2,31.89,West,270,0.0,0.0,38,0.00,CLR,SKC,0.00,WeatherDisplay:10.37,2013-01-05 01:54:00,
2013-01-04 18:59:00,44.8,21.3,31.89,North,0,0.0,0.3,39,0.00,CLR,SKC,0.00,WeatherDisplay:10.37,2013-01-05 01:59:00,
2013-01-04 19:04:00,43.9,20.5,32.20,North,0,0.0,0.0,39,0.00,CLR,SKC,0.00,WeatherDisplay:10.37,2013-01-05 02:04:00,
2013-01-04 19:09:00,43.3,20.6,32.20,North,0,0.0,0.0,40,0.00,CLR,SKC,0.00,WeatherDisplay:10.37,2013-01-05 02:09:00,
2013-01-04 19:14:00,43.0,20.3,31.89,NNW,338,0.0,0.0,40,0.00,CLR,SKC,0.00,WeatherDisplay:10.37,2013-01-05 02:14:00,
2013-01-04 19:19:00,42.8,20.1,31.89,NNW,338,0.0,0.0,40,0.00,CLR,SKC,0.00,WeatherDisplay:10.37,2013-01-05 02:19:00,
2013-01-04 19:24:00,42.4,19.8,32.21,NNW,338,0.0,0.0,40,0.00,CLR,SKC,0.00,WeatherDisplay:10.37,2013-01-05 02:24:00,
2013-01-04 19:29:00,41.9,19.9,32.21,NNW,338,0.0,0.0,41,0.00,CLR,SKC,0.00,WeatherDisplay:10.37,2013-01-05 02:29:00,
2013-01-04 19:34:00,41.5,19.6,32.21,NNW,338,0.0,0.0,41,0.00,CLR,SKC,0.00,WeatherDisplay:10.37,2013-01-05 02:34:00,
2013-01-04 19:39:00,41.0,19.6,32.21,NNW,338,0.0,0.0,42,0.00,CLR,SKC,0.00,WeatherDisplay:10.37,2013-01-05 02:39:00,
2013-01-04 19:44:00,40.8,19.5,32.21,NNW,338,5.8,5.8,42,0.00,CLR,SKC,0.00,WeatherDisplay:10.37,2013-01-05 02:44:00,
2013-01-04 19:49:00,40.1,19.4,32.21,NW,315,9.2,9.2,43,0.00,CLR,SKC,0.00,WeatherDisplay:10.37,2013-01-05 02:49:00,
2013-01-04 19:54:00,39.7,19.6,32.21,NW,315,6.9,6.9,44,0.00,CLR,SKC,0.00,WeatherDisplay:10.37,2013-01-05 02:54:00,
2013-01-04 19:59:00,39.4,19.8,31.89,NW,315,6.9,6.9,45,0.00,CLR,SKC,0.00,WeatherDisplay:10.37,2013-01-05 02:59:00,
2013-01-04 20:04:00,38.8,19.3,32.22,NW,315,6.9,6.9,45,0.00,CLR,SKC,0.00,WeatherDisplay:10.37,2013-01-05 03:04:00,
2013-01-04 20:09:00,38.3,19.3,32.22,NW,315,5.8,5.8,46,0.00,CLR,SKC,0.00,WeatherDisplay:10.37,2013-01-05 03:09:00,
2013-01-04 20:14:00,37.9,19.5,32.22,NW,315,5.8,5.8,47,0.00,CLR,SKC,0.00,WeatherDisplay:10.37,2013-01-05 03:14:00,
2013-01-04 20:19:00,37.6,19.6,31.89,NW,315,6.9,6.9,48,0.00,CLR,SKC,0.00,WeatherDisplay:10.37,2013-01-05 03:19:00,
2013-01-04 20:24:00,37.2,19.3,31.89,NNW,338,5.8,5.8,48,0.00,CLR,SKC,0.00,WeatherDisplay:10.37,2013-01-05 03:24:00,
2013-01-04 20:29:00,36.7,18.8,31.89,NW,315,8.1,8.1,48,0.00,CLR,SKC,0.00,WeatherDisplay:10.37,2013-01-05 03:29:00,
2013-01-04 20:34:00,36.0,19.1,31.89,NW,315,10.4,10.4,50,0.00,CLR,SKC,0.00,WeatherDisplay:10.37,2013-01-05 03:34:00,
2013-01-04 20:39:00,35.4,18.6,31.89,WNW,292,10.4,10.4,50,0.00,CLR,SKC,0.00,WeatherDisplay:10.37,2013-01-05 03:39:00,
2013-01-04 20:44:00,35.4,19.1,32.23,WNW,292,8.1,8.1,51,0.00,CLR,SKC,0.00,WeatherDisplay:10.37,2013-01-05 03:44:00,
2013-01-04 20:49:00,35.4,19.1,32.22,West,270,9.2,9.2,51,0.00,CLR,SKC,0.00,WeatherDisplay:10.37,2013-01-05 03:49:00,
2013-01-04 20:54:00,36.0,20.0,32.22,West,270,11.5,11.5,52,0.00,CLR,SKC,0.00,WeatherDisplay:10.37,2013-01-05 03:54:00,
2013-01-04 20:59:00,36.5,20.5,32.23,West,270,10.4,10.4,52,0.00,CLR,SKC,0.00,WeatherDisplay:10.37,2013-01-05 03:59:00,
2013-01-04 21:04:00,37.0,21.0,32.23,West,270,13.8,13.8,52,0.00,CLR,SKC,0.00,WeatherDisplay:10.37,2013-01-05 04:04:00,
2013-01-04 21:09:00,37.2,20.7,32.23,West,270,12.7,12.7,51,0.00,CLR,SKC,0.00,WeatherDisplay:10.37,2013-01-05 04:09:00,
2013-01-04 21:14:00,37.2,21.2,32.22,West,270,12.7,12.7,52,0.00,CLR,SKC,0.00,WeatherDisplay:10.37,2013-01-05 04:14:00,
2013-01-04 21:19:00,37.6,21.5,32.22,WNW,292,16.1,16.1,52,0.00,CLR,SKC,0.00,WeatherDisplay:10.37,2013-01-05 04:19:00,
2013-01-04 21:24:00,37.8,21.7,32.23,West,270,9.2,9.2,52,0.00,CLR,SKC,0.00,WeatherDisplay:10.37,2013-01-05 04:24:00,
2013-01-04 21:29:00,37.6,21.1,32.23,WNW,292,0.0,0.0,51,0.00,CLR,SKC,0.00,WeatherDisplay:10.37,2013-01-05 04:29:00,
2013-01-04 21:34:00,37.0,20.6,32.23,WNW,292,0.0,0.0,51,0.00,CLR,SKC,0.00,WeatherDisplay:10.37,2013-01-05 04:34:00,
2013-01-04 21:39:00,36.7,20.2,32.23,WNW,292,0.0,0.0,51,0.00,CLR,SKC,0.00,WeatherDisplay:10.37,2013-01-05 04:39:00,
2013-01-04 21:44:00,36.3,19.9,31.89,WNW,292,0.0,0.0,51,0.00,CLR,SKC,0.00,WeatherDisplay:10.37,2013-01-05 04:44:00,
2013-01-04 21:49:00,36.1,19.7,32.24,NW,315,0.0,0.0,51,0.00,CLR,SKC,0.00,WeatherDisplay:10.37,2013-01-05 04:49:00,
2013-01-04 21:54:00,35.8,19.9,32.24,NNW,338,0.0,0.0,52,0.00,CLR,SKC,0.00,WeatherDisplay:10.37,2013-01-05 04:54:00,
2013-01-04 21:59:00,35.4,19.5,32.24,NNW,338,0.0,0.0,52,0.00,CLR,SKC,0.00,WeatherDisplay:10.37,2013-01-05 04:59:00,
2013-01-04 22:00:00,35.4,19.5,31.89,NNW,338,0.0,2.0,52,0.00,CLR,SKC,0.00,WeatherDisplay:10.37,2013-01-05 05:00:00,
2013-01-04 22:01:00,35.4,19.5,31.89,NNW,338,0.0,0.0,52,0.00,CLR,SKC,0.00,WeatherDisplay:10.37,2013-01-05 05:01:00,
2013-01-04 22:02:00,35.2,19.4,32.24,NNW,338,0.0,0.0,52,0.00,CLR,SKC,0.00,WeatherDisplay:10.37,2013-01-05 05:02:00,
2013-01-04 22:07:00,34.5,19.1,32.24,NNW,338,3.5,3.5,53,0.00,CLR,SKC,0.00,WeatherDisplay:10.37,2013-01-05 05:07:00,
2013-01-04 22:12:00,34.3,19.4,32.24,NNW,338,0.0,0.0,54,0.00,CLR,SKC,0.00,WeatherDisplay:10.37,2013-01-05 05:12:00,
2013-01-04 22:17:00,34.2,19.2,32.25,NNW,338,2.3,2.3,54,0.00,CLR,SKC,0.00,WeatherDisplay:10.37,2013-01-05 05:17:00,
2013-01-04 22:22:00,33.8,19.3,31.89,NNW,338,5.8,5.8,55,0.00,CLR,SKC,0.00,WeatherDisplay:10.37,2013-01-05 05:22:00,
2013-01-04 22:27:00,33.6,19.6,32.25,NNW,338,4.6,4.6,56,0.00,CLR,SKC,0.00,WeatherDisplay:10.37,2013-01-05 05:27:00,
2013-01-04 22:32:00,33.4,19.4,32.25,NNW,338,3.6,3.6,56,0.00,CLR,SKC,0.00,WeatherDisplay:10.37,2013-01-05 05:32:00,
2013-01-04 22:37:00,33.1,19.1,31.89,NNW,338,1.2,1.2,56,0.00,CLR,SKC,0.00,WeatherDisplay:10.37,2013-01-05 05:37:00,
2013-01-04 22:42:00,32.7,19.1,32.25,NNW,338,3.5,3.5,57,0.00,CLR,SKC,0.00,WeatherDisplay:10.37,2013-01-05 05:42:00,
2013-01-04 22:47:00,32.4,19.2,31.89,NNW,338,8.1,8.1,58,0.00,CLR,SKC,0.00,WeatherDisplay:10.37,2013-01-05 05:47:00,
2013-01-04 22:52:00,31.8,18.7,32.25,NNW,338,4.6,4.6,58,0.00,CLR,SKC,0.00,WeatherDisplay:10.37,2013-01-05 05:52:00,
2013-01-04 22:57:00,31.6,18.9,32.25,NNW,338,6.9,6.9,59,0.00,CLR,SKC,0.00,WeatherDisplay:10.37,2013-01-05 05:57:00,
2013-01-04 23:02:00,31.1,18.8,32.25,NNW,338,4.7,4.7,60,0.00,CLR,SKC,0.00,WeatherDisplay:10.37,2013-01-05 06:02:00,
2013-01-04 23:07:00,30.7,18.5,32.25,NNW,338,4.6,4.6,60,0.00,CLR,SKC,0.00,WeatherDisplay:10.37,2013-01-05 06:07:00,
2013-01-04 23:12:00,30.4,18.5,31.89,NNW,338,6.9,6.9,61,0.00,CLR,SKC,0.00,WeatherDisplay:10.37,2013-01-05 06:12:00,
2013-01-04 23:17:00,30.0,18.2,32.25,NNW,338,6.9,6.9,61,0.00,CLR,SKC,0.00,WeatherDisplay:10.37,2013-01-05 06:17:00,
2013-01-04 23:22:00,29.8,18.4,32.25,NNW,338,5.6,5.6,62,0.00,CLR,SKC,0.00,WeatherDisplay:10.37,2013-01-05 06:22:00,
2013-01-04 23:27:00,29.8,18.8,32.25,NNW,338,6.9,6.9,63,0.00,CLR,SKC,0.00,WeatherDisplay:10.37,2013-01-05 06:27:00,
2013-01-04 23:32:00,29.8,19.1,31.89,NNW,338,5.8,5.8,64,0.00,CLR,SKC,0.00,WeatherDisplay:10.37,2013-01-05 06:32:00,
2013-01-04 23:37:00,30.0,19.3,32.24,NNW,338,0.0,0.1,64,0.00,CLR,SKC,0.00,WeatherDisplay:10.37,2013-01-05 06:37:00,
2013-01-04 23:42:00,30.0,19.3,31.89,NNW,338,1.1,1.1,64,0.00,CLR,SKC,0.00,WeatherDisplay:10.37,2013-01-05 06:42:00,
2013-01-04 23:47:00,30.0,18.9,32.25,NNW,338,6.9,6.9,63,0.00,CLR,SKC,0.00,WeatherDisplay:10.37,2013-01-05 06:47:00,
2013-01-04 23:52:00,30.0,19.3,31.89,NNW,338,6.9,6.9,64,0.00,CLR,SKC,0.00,WeatherDisplay:10.37,2013-01-05 06:52:00,
2013-01-04 23:57:00,30.0,19.3,32.25,NNW,338,6.9,6.9,64,0.00,CLR,SKC,0.00,WeatherDisplay:10.37,2013-01-05 06:57:00,